Theta_e
311 311 311 310 309 308 307 306 306 305 305 305 303 304 303 302 300 298 298 297 299 299 299 301 300 302 302 302 302 302 301 300 301 301 301 301 300 299 299 297 296 295
309 310 310 309 308 308 307 306 306 306 306 305 304 304 303 302 302 300 297 296 296 297 298 299 298 299 300 301 300 299 297 297 298 298 298 299 298 298 297 296 295 294
308 309 309 307 307 308 307 305 306 306 306 306 306 305 303 301 300 297 297 296 296 295 295 296 296 297 297 297 297 297 298 297 298 295 297 297 296 296 295 294 293 293
308 308 309 307 308 308 307 305 305 305 305 305 304 303 301 300 299 295 295 294 295 293 293 293 294 294 294 294 294 295 296 296 296 295 296 295 294 294 293 292 292 291
307 307 308 307 307 307 306 304 304 304 304 304 303 302 299 295 293 293 293 291 292 292 291 291 292 292 294 294 294 294 294 294 293 294 294 293 293 292 292 291 290 289
307 307 307 306 306 305 303 303 304 303 302 301 301 300 297 295 293 292 291 290 290 290 290 291 291 291 292 293 293 294 294 294 293 293 292 291 290 290 290 290 289 287
306 306 304 304 303 303 302 302 302 300 300 299 297 296 296 294 292 291 290 290 289 289 289 290 290 290 291 291 292 292 293 292 291 292 291 289 288 288 289 288 287 286
305 305 304 302 302 301 301 300 300 299 298 296 295 295 294 292 291 291 290 289 289 289 289 289 289 289 290 290 291 291 291 291 290 290 289 287 287 286 286 287 286 285
304 303 301 301 301 300 300 299 298 296 295 295 294 293 292 292 292 290 289 289 288 288 288 288 288 288 289 289 290 289 289 289 290 289 288 286 286 285 286 286 285 284
303 303 300 300 300 301 301 299 297 294 293 293 293 291 290 291 291 290 289 288 287 287 287 287 287 287 288 288 289 289 289 288 288 288 288 287 286 285 284 284 284 283
302 301 299 298 298 298 299 298 297 294 292 292 292 290 290 290 289 289 288 287 286 286 286 286 287 287 287 287 288 288 288 288 288 287 287 286 285 284 285 284 284 283
301 300 298 297 296 295 295 295 295 294 292 291 291 290 290 290 288 288 288 286 286 286 286 286 286 286 286 287 287 287 287 287 287 287 286 285 284 284 284 284 283 283
300 299 297 297 296 295 295 294 294 293 291 290 290 289 289 288 287 287 287 287 286 286 286 285 285 285 286 286 286 286 286 286 286 285 285 284 284 284 283 283 284 283
299 299 297 297 296 295 294 294 293 290 289 289 289 289 288 287 287 286 287 286 286 286 286 285 285 285 285 285 285 286 285 285 285 284 283 283 283 283 283 283 283 283
299 298 297 296 295 294 294 294 292 289 288 288 288 288 288 287 287 286 286 285 285 285 285 285 285 285 285 284 284 284 285 284 284 284 283 282 282 281 282 282 281 281
299 297 296 294 294 293 293 294 292 289 288 287 286 287 286 286 285 285 285 285 285 284 284 285 284 285 285 286 287 284 284 285 284 283 282 282 281 280 280 280 280 280
298 296 294 293 293 293 293 293 290 287 287 286 286 286 285 285 284 284 283 283 283 283 283 284 284 284 286 288 288 288 285 284 283 283 283 282 281 281 279 279 279 279
296 294 293 292 292 292 292 290 288 287 286 285 285 285 285 285 284 283 283 283 284 283 283 283 283 285 288 288 289 289 287 284 284 283 283 282 281 281 280 279 279 278
295 293 292 291 291 289 289 288 287 286 286 285 284 285 284 284 283 283 283 283 283 283 282 282 282 285 288 289 289 289 288 286 284 284 283 282 281 281 280 279 279 278
294 290 290 290 289 288 288 287 286 285 285 285 285 284 284 283 284 283 283 282 282 282 282 282 282 285 287 288 289 289 289 287 284 283 283 282 281 281 280 279 279 279
291 290 289 289 288 287 286 286 285 285 285 285 284 284 283 283 283 283 283 283 283 283 283 282 281 286 287 288 289 288 288 286 284 284 283 282 281 280 280 279 279 279
290 289 288 288 287 286 286 285 285 285 285 284 284 284 284 284 284 283 283 283 283 283 282 282 283 286 287 287 288 288 287 284 283 283 282 281 280 279 279 279 279 280
290 289 288 287 286 285 285 285 284 284 284 285 283 283 283 283 283 283 283 283 283 283 282 282 283 286 287 287 287 287 285 283 283 282 282 280 279 279 279 279 279 280
289 288 287 286 286 285 285 285 285 285 284 284 284 283 282 282 283 283 283 283 283 283 283 282 282 285 287 288 287 286 285 283 282 282 281 281 280 279 279 279 280 281
288 288 287 286 285 285 285 284 284 284 284 284 284 284 283 283 283 283 283 283 283 283 283 282 283 285 287 288 287 287 284 283 283 282 280 280 280 280 280 280 280 281
287 286 286 285 285 285 285 285 285 284 284 284 283 283 283 282 282 282 281 282 282 282 282 282 282 284 286 287 287 286 285 284 284 282 281 281 281 282 281 281 281 281
Wind_Speed
12 12 11 8 7 5 6 7 6 7 9 9 7 8 7 6 8 9 9 7 9 10 8 8 7 8 7 7 8 8 6 9 8 7 7 8 5 7 7 5 4 5
14 12 9 7 6 6 7 8 8 9 9 8 6 6 5 6 8 8 9 9 9 10 9 8 8 8 8 8 8 7 6 6 7 4 6 6 4 6 6 6 5 4
14 13 11 9 9 10 9 9 9 8 7 5 6 7 7 7 7 7 8 9 10 8 9 8 8 8 7 7 7 8 8 8 9 5 6 6 5 6 5 6 4 4
14 14 12 8 9 11 9 8 9 7 6 5 7 6 6 6 6 7 6 7 7 9 8 7 8 8 7 5 5 6 6 6 7 7 6 5 5 6 7 6 6 5
12 13 13 9 8 8 7 7 8 7 8 8 6 7 7 7 7 7 7 7 7 5 7 8 6 7 8 7 6 6 6 6 6 7 7 6 5 6 6 7 7 7
11 11 10 10 9 8 7 10 9 7 7 7 7 7 7 7 8 8 8 9 8 9 8 8 8 6 6 7 8 7 7 7 7 8 8 7 6 5 5 6 8 7
10 10 9 8 8 7 8 9 8 8 7 6 6 5 6 8 8 9 9 9 9 10 9 9 9 9 8 7 8 8 7 7 8 9 9 7 8 8 6 7 8 8
9 7 8 8 10 8 8 7 7 8 7 5 7 5 7 7 8 8 8 10 10 10 10 10 9 9 9 8 9 8 8 6 8 9 9 9 9 10 8 6 8 9
9 8 8 9 11 9 9 8 7 5 7 6 7 6 6 7 8 8 9 9 9 9 10 10 10 9 8 7 8 9 9 9 9 10 10 11 11 10 10 9 9 9
11 9 10 10 11 10 10 9 8 6 5 7 7 6 7 6 7 7 7 9 8 9 9 9 10 9 9 8 9 9 9 11 10 10 10 11 11 11 10 10 11 11
12 11 10 11 10 8 11 9 8 7 7 9 8 7 7 7 7 6 7 8 8 9 10 10 10 10 10 9 8 8 9 10 10 10 10 11 11 11 11 11 11 11
12 11 11 10 10 9 10 10 9 9 9 8 9 8 8 8 8 7 7 10 9 9 9 9 9 9 10 10 9 8 8 9 9 10 10 10 10 10 11 10 11 11
12 11 10 11 10 10 10 9 10 9 10 9 8 9 9 7 6 7 8 9 9 9 10 9 9 9 9 9 9 9 9 10 10 10 10 10 10 10 9 9 10 11
11 10 9 10 9 10 11 10 9 9 10 9 8 8 6 6 7 8 8 8 9 9 8 8 8 8 8 8 9 10 10 10 11 11 10 9 9 8 8 9 9 10
8 8 8 10 10 10 11 11 9 9 9 8 8 8 6 7 7 7 8 8 7 7 7 7 8 8 8 8 9 10 9 10 11 11 11 10 9 8 7 7 8 7
8 8 8 8 11 10 11 11 9 9 9 8 9 8 7 7 7 7 7 7 7 7 7 6 6 5 8 13 12 10 10 8 8 10 11 11 10 9 7 7 7 6
8 8 8 9 10 10 10 10 9 9 9 9 8 8 8 7 7 7 7 6 7 7 7 6 6 6 11 13 15 13 11 11 12 11 10 10 10 10 8 8 6 7
8 8 9 9 9 10 10 6 7 7 7 6 6 6 7 7 7 8 7 7 6 6 7 7 6 9 8 12 15 16 12 9 9 8 9 9 10 10 9 8 8 6
8 9 9 9 9 9 7 7 7 7 7 7 7 6 6 7 7 8 8 7 7 8 8 6 6 10 10 11 11 12 12 11 7 10 9 8 9 9 10 9 9 8
8 7 8 9 8 7 7 8 8 8 6 5 6 6 7 7 5 7 6 7 8 7 7 6 6 10 12 11 10 9 12 9 8 9 7 9 10 10 9 8 8 10
8 9 9 7 8 8 8 9 10 7 8 6 7 7 8 9 9 8 6 5 5 5 5 5 5 11 13 12 10 11 11 9 6 6 5 6 7 9 10 10 10 9
8 6 6 7 9 8 9 9 9 9 8 7 6 5 3 3 2 4 5 6 5 6 5 5 4 14 12 14 14 14 11 5 5 6 6 6 7 8 8 8 8 8
6 8 5 6 8 8 8 8 8 8 6 4 7 5 5 6 5 5 5 5 6 6 6 5 4 11 14 15 15 15 9 4 5 5 7 7 7 8 7 7 7 7
6 7 6 6 8 9 8 7 7 5 5 6 6 7 6 6 5 5 4 5 6 6 6 6 5 9 14 16 16 16 9 7 6 7 7 8 6 5 5 5 6 7
6 6 7 7 8 8 8 8 7 6 5 6 5 5 6 5 5 5 5 5 5 5 7 7 6 10 15 17 18 17 11 7 7 7 8 6 6 6 4 4 5 6
5 7 7 8 8 7 6 7 6 5 7 6 6 4 4 4 4 4 6 3 4 4 5 5 6 6 10 16 16 16 13 8 6 7 7 7 6 6 6 4 4 4
Wind_Direction
214 218 219 207 194 189 173 182 187 183 191 195 188 194 187 188 177 191 194 187 195 200 195 190 184 188 195 192 189 185 194 197 204 200 196 188 171 156 160 147 138 146
219 216 216 196 188 186 195 194 200 201 201 193 180 174 172 177 190 187 194 191 190 199 193 187 188 188 188 188 188 187 188 190 198 185 184 182 151 146 149 148 135 119
221 219 212 188 190 194 190 189 201 205 201 186 187 192 190 185 175 181 196 199 194 180 184 186 182 188 189 188 185 188 188 185 186 167 172 169 142 151 139 135 128 130
220 224 223 201 195 195 191 177 197 196 197 188 192 184 172 177 171 171 184 189 195 183 182 182 185 183 187 188 178 193 194 185 177 163 161 146 139 140 143 137 130 115
217 221 224 210 197 193 182 176 178 181 188 192 177 178 162 155 164 166 174 175 180 167 179 184 181 183 181 181 177 183 178 172 154 160 161 156 145 140 142 139 134 122
219 223 215 209 197 191 192 200 204 193 182 185 180 159 163 155 162 176 176 178 181 182 184 177 177 178 177 178 180 187 178 175 168 162 160 153 142 135 140 141 135 129
216 214 205 201 190 188 189 199 200 194 194 182 149 161 151 167 176 180 181 182 178 183 183 180 179 178 177 177 186 183 181 171 161 165 159 152 141 139 142 143 139 128
215 215 203 186 203 202 202 198 197 199 192 160 164 155 169 176 185 181 179 181 183 183 182 183 182 182 177 177 188 180 176 164 165 165 160 150 148 151 151 144 134 127
209 199 187 195 198 203 201 202 201 171 167 168 173 171 173 188 186 184 179 179 184 187 183 183 183 180 180 180 189 182 172 166 168 168 163 157 157 157 151 143 133 130
207 200 190 192 204 206 212 205 195 166 165 182 185 170 181 191 189 176 172 184 187 189 186 184 181 180 180 187 191 186 177 171 170 169 165 163 161 155 151 147 140 130
208 202 189 189 193 195 206 203 197 186 179 188 183 181 187 182 188 168 174 183 191 192 187 187 187 180 179 184 191 187 180 173 171 167 165 163 158 155 152 148 145 141
206 200 192 186 185 181 189 194 196 197 189 190 188 189 189 191 182 175 177 188 195 197 193 189 188 187 184 184 186 182 175 175 169 164 161 156 154 154 153 151 145 142
203 201 194 192 186 186 187 190 196 192 191 187 182 190 189 175 165 171 185 191 197 198 197 188 188 194 190 184 181 179 176 171 163 158 156 153 154 151 147 141 143 146
202 200 194 189 186 184 188 195 193 182 179 181 178 184 174 172 173 179 187 194 198 197 196 187 189 195 196 187 178 175 175 173 164 156 149 141 141 144 145 145 143 143
198 197 194 189 185 182 187 192 187 182 179 179 183 188 181 185 183 186 186 196 202 197 191 188 194 197 196 187 178 176 176 168 160 152 149 144 142 138 131 122 118 118
194 187 186 176 181 190 190 191 185 179 177 180 182 182 178 175 174 177 187 190 190 193 194 190 198 199 201 192 182 172 168 162 151 154 154 149 142 132 116 112 110 111
197 184 176 182 185 185 190 191 172 165 175 179 179 177 166 162 168 177 186 186 188 189 192 196 200 202 200 192 188 176 166 165 162 155 148 144 144 139 133 130 116 115
194 179 180 182 178 185 188 182 167 171 179 175 173 173 170 153 168 183 183 188 191 194 202 202 207 205 183 184 184 182 173 157 152 149 152 152 149 145 141 135 133 129
191 184 181 177 175 168 173 170 168 167 172 168 174 175 163 173 170 179 183 185 190 194 201 198 208 187 171 174 171 165 161 162 159 153 149 151 150 148 143 137 137 133
185 173 176 171 164 165 165 168 168 174 162 156 163 158 169 173 168 180 176 182 188 192 192 193 201 182 170 162 158 157 162 156 152 151 150 148 147 145 140 137 142 145
176 169 170 164 164 161 161 167 170 151 165 163 167 170 174 179 181 182 182 176 173 177 188 189 190 164 163 158 145 152 154 151 147 143 131 126 127 139 147 149 149 151
169 168 162 150 152 153 160 164 161 161 136 153 159 157 139 118 129 159 168 169 170 174 182 187 166 164 160 157 166 158 146 131 138 134 127 123 123 125 132 139 149 154
155 157 158 142 152 154 162 163 161 159 149 127 149 148 146 165 170 168 168 167 164 170 176 177 151 166 160 161 157 149 138 126 129 128 129 134 137 141 137 141 148 159
161 161 155 149 152 160 161 160 157 144 136 150 147 159 164 162 154 149 152 165 167 173 177 172 158 162 161 157 149 150 150 148 147 140 139 132 130 126 125 143 157 155
147 151 151 152 158 161 159 154 156 149 140 144 148 134 143 137 148 147 149 157 168 168 167 165 156 165 165 161 157 159 150 147 144 142 142 141 135 139 141 143 157 168
144 150 151 153 155 149 147 144 134 121 134 132 136 130 121 134 141 126 150 120 144 148 156 156 151 160 169 166 159 153 150 149 148 142 146 145 147 149 155 165 162 172